Flag for Brazil Weather past 2 weeks in Belo Horizonte, Minas Gerais, Brazil

Now
68 °F

Clear.


Feels Like: 68 °F
Forecast: 62 / 79 °F
Wind: 12 mph from Southeast

Location: Belo Horizonte Airport

Current Time: Sep 22, 2014 at 11:33:35 PM

Latest Report: Sep 22, 2014 at 11:00 PM


Visibility: 10 mi

Pressure: 30.18 "Hg

Humidity: 38%

Dew point: 41 °F

Location of Belo HorizonteLocation

Historic Weather in Belo Horizonte — Graph

°F

Belo Horizonte temperature yesterday

Maximum temperature yesterday: 88 °F (at 1:00 PM)
Minimum temperature yesterday: 66 °F (at 4:00 AM)
Average temperature yesterday: 75 °F

Past Weeks' High & Low Weather Summary

 TemperatureHumidityPressure
High90 °F (Sep 16, 2:00 PM)88% (Sep 18, 4:00 AM)30.33 "Hg (Sep 18, 4:00 AM)
Low54 °F (Sep 8, 6:00 AM)15% (Sep 11, 3:00 PM)29.95 "Hg (Sep 21, 2:00 PM)
Average72 °F48%30.12 "Hg
* Reported Sep 7 10:00 PM — Sep 22 10:00 PM, Belo Horizonte, Weather by CustomWeather, © 2014

Note: Actual official high and low records may vary slightly from our data, if they occured in-between our weather recording intervals... More about our weather records

Advertising

Belo Horizonte weather history for previous 24 hours

 ConditionsComfort  
Time TempWeatherWind HumidityBarometerVisibility
10:00 PM
Sep 22
72 °FClear.16 mph31%30.15 "Hg10 mi
9:00 PM72 °FClear.14 mph33%30.15 "Hg10 mi
8:00 PM75 °FClear.13 mph34%30.12 "Hg10 mi
7:00 PM75 °FClear.16 mph36%30.09 "Hg10 mi
6:00 PM79 °FClear.15 mph34%30.07 "Hg10 mi
5:00 PM82 °FSunny.12 mph30%30.04 "Hg10 mi
4:00 PM82 °FSunny.12 mph30%30.04 "Hg10 mi
3:00 PM82 °FSunny.8 mph30%30.04 "Hg10 mi
2:00 PM82 °FSunny.9 mph30%30.07 "Hg10 mi
1:00 PM81 °FSunny.12 mph32%30.09 "Hg10 mi
12:00 PM77 °FSunny.12 mph39%30.12 "Hg10 mi
11:00 AM77 °FSunny.12 mph39%30.15 "Hg10 mi
10:00 AM73 °FSunny.15 mph47%30.15 "Hg10 mi
9:00 AM70 °FSunny.12 mph57%30.15 "Hg10 mi
8:00 AM66 °FSunny.10 mph68%30.15 "Hg10 mi
7:00 AM63 °FSunny.9 mph77%30.12 "Hg10 mi
6:00 AM63 °FSunny.14 mph77%30.09 "Hg10 mi
5:00 AM64 °FClear.13 mph83%30.07 "Hg10 mi
4:00 AM66 °FClear.13 mph73%30.07 "Hg10 mi
3:00 AM68 °FClear.9 mph69%30.04 "Hg10 mi
2:00 AM70 °FClear.2 mph64%30.04 "Hg10 mi
1:00 AM70 °FClear.3 mph64%30.04 "Hg10 mi
12:00 AM70 °FClear.9 mph64%30.07 "Hg10 mi
11:00 PM
Sep 21
70 °FClear.13 mph64%30.07 "Hg10 mi
Weather by CustomWeather, © 2014

See weather overviewHow to use our weather pages